This is the latest recevied weather packets stored in our database for station/object OE-11099. If no packets are shown the sender has not sent any weather packets the latest 10 day(s).
| Time | Temp. | Humidity | Pressure | Rain* | Wind** | Luminosity | Snow |
|---|---|---|---|---|---|---|---|
| 1787849706 | 31.67° C | 31% | 1008.7 hPa | 0 mm | - | 133 W/m² | - |
| 1787848879 | 31.11° C | 39% | 1008.7 hPa | 0 mm | - | 146 W/m² | - |
| 1787848506 | 31.67° C | 33% | 1008.6 hPa | 0 mm | - | 133 W/m² | - |
| 1787847906 | 32.22° C | 30% | 1008.5 hPa | 0 mm | - | 146 W/m² | - |
| 1787847079 | 32.78° C | 29% | 1008.3 hPa | 0 mm | - | 166 W/m² | - |
| 1787846706 | 32.78° C | 28% | 1008.2 hPa | 0 mm | - | 246 W/m² | - |
| 1787846106 | 32.78° C | 30% | 1008 hPa | 0 mm | - | 293 W/m² | - |
| 1787845278 | 32.78° C | 29% | 1008.2 hPa | 0 mm | - | 259 W/m² | - |
| 1787844906 | 32.78° C | 28% | 1008.3 hPa | 0 mm | - | 239 W/m² | - |
| 1787844306 | 32.78° C | 29% | 1008.4 hPa | 0 mm | - | 239 W/m² | - |
| 1787843479 | 32.78° C | 30% | 1008.4 hPa | 0 mm | - | 199 W/m² | - |
| 1787843106 | 33.33° C | 28% | 1008.3 hPa | 0 mm | - | 332 W/m² | - |
| 1787842506 | 33.33° C | 28% | 1008.2 hPa | 0 mm | - | 392 W/m² | - |
| 1787841679 | 32.78° C | 30% | 1008.3 hPa | 0 mm | - | 273 W/m² | - |
| 1787841306 | 32.78° C | 29% | 1008.3 hPa | 0 mm | - | 239 W/m² | - |
| 1787839879 | 32.78° C | 26% | 1008.3 hPa | 0 mm | - | 293 W/m² | - |
| 1787839506 | 33.33° C | 28% | 1008.1 hPa | 0 mm | - | 332 W/m² | - |
| 1787838906 | 33.33° C | 27% | 1008.4 hPa | 0 mm | - | 286 W/m² | - |
| 1787838079 | 33.33° C | 28% | 1008.1 hPa | 0 mm | - | 346 W/m² | - |
| 1787837706 | 33.33° C | 27% | 1008.1 hPa | 0 mm | - | 525 W/m² | - |
| 1787837106 | 32.78° C | 28% | 1008.2 hPa | 0 mm | - | 332 W/m² | - |
| 1787836279 | 32.78° C | 33% | 1008.1 hPa | 0 mm | - | 372 W/m² | - |
| 1787835905 | 33.33° C | 29% | 1008 hPa | 0 mm | - | 366 W/m² | - |
| 1787835306 | 32.78° C | 31% | 1008.3 hPa | 0 mm | - | 625 W/m² | - |
| 1787834479 | 32.22° C | 34% | 1008.4 hPa | 0 mm | - | 406 W/m² | - |
* Rain latest hour (hover to see other rain measurements)
** Current wind speed in m/s (hover to see current wind gust speed)